Total_Precipitation_Accumulation
0.17 0.16 0.18 0.22 0.19 0.13 0.04 0.01 0.00 0.00 0.01 0.01 0.04 0.06 0.06 0.06 0.07 0.11 0.12 0.10 0.10 0.10 0.15 0.32 0.44 0.51 0.58 0.60 0.59 0.57 0.52 0.58 0.62 0.66 0.71 0.79 0.80 0.77 0.78 0.74 0.74 0.77 0.84 0.86 0.87 0.85 0.80 0.72 0.71
0.18 0.22 0.27 0.31 0.17 0.08 0.04 0.01 0.00 0.01 0.02 0.02 0.05 0.07 0.06 0.05 0.05 0.08 0.13 0.09 0.07 0.08 0.12 0.23 0.41 0.50 0.57 0.60 0.59 0.57 0.56 0.58 0.62 0.64 0.69 0.76 0.79 0.83 0.81 0.73 0.74 0.80 0.87 0.90 0.89 0.85 0.82 0.75 0.69
0.25 0.33 0.37 0.32 0.15 0.05 0.03 0.01 0.01 0.01 0.02 0.04 0.05 0.08 0.08 0.07 0.07 0.09 0.12 0.07 0.08 0.11 0.13 0.25 0.44 0.53 0.60 0.63 0.62 0.61 0.60 0.63 0.66 0.67 0.72 0.81 0.81 0.81 0.78 0.70 0.70 0.75 0.88 0.95 0.91 0.80 0.75 0.74 0.70
0.33 0.49 0.51 0.32 0.12 0.05 0.03 0.02 0.01 0.02 0.02 0.04 0.05 0.06 0.08 0.09 0.08 0.11 0.11 0.08 0.11 0.15 0.17 0.30 0.48 0.57 0.63 0.66 0.67 0.66 0.67 0.70 0.74 0.77 0.80 0.87 0.85 0.87 0.82 0.75 0.69 0.66 0.74 0.84 0.84 0.77 0.73 0.72 0.66
0.42 0.54 0.51 0.28 0.10 0.06 0.04 0.02 0.02 0.03 0.03 0.04 0.06 0.06 0.09 0.12 0.10 0.11 0.11 0.11 0.11 0.17 0.22 0.33 0.56 0.67 0.69 0.71 0.73 0.75 0.75 0.79 0.83 0.86 0.89 0.91 0.88 0.87 0.83 0.79 0.73 0.67 0.65 0.71 0.78 0.77 0.75 0.72 0.65
0.57 0.56 0.40 0.22 0.11 0.06 0.04 0.03 0.03 0.03 0.03 0.04 0.05 0.07 0.11 0.15 0.14 0.14 0.15 0.16 0.14 0.20 0.28 0.40 0.65 0.77 0.81 0.80 0.83 0.84 0.86 0.91 0.94 0.95 0.97 0.97 0.91 0.84 0.80 0.80 0.74 0.67 0.61 0.60 0.64 0.68 0.68 0.67 0.63
0.59 0.52 0.29 0.16 0.13 0.08 0.05 0.03 0.04 0.04 0.04 0.05 0.05 0.08 0.14 0.18 0.16 0.17 0.22 0.23 0.24 0.30 0.40 0.49 0.67 0.82 0.95 0.96 0.93 0.96 0.98 1.01 1.06 1.06 1.03 0.98 0.91 0.87 0.85 0.81 0.75 0.69 0.65 0.61 0.58 0.59 0.58 0.55 0.55
0.61 0.61 0.35 0.18 0.14 0.10 0.06 0.04 0.05 0.05 0.05 0.06 0.06 0.09 0.14 0.17 0.17 0.21 0.34 0.37 0.37 0.45 0.57 0.62 0.72 0.83 0.94 1.02 1.04 1.04 1.06 1.09 1.12 1.12 1.07 0.99 0.97 0.96 0.90 0.80 0.74 0.75 0.74 0.68 0.61 0.56 0.53 0.48 0.45
0.71 0.76 0.40 0.16 0.13 0.11 0.08 0.08 0.07 0.06 0.08 0.08 0.08 0.09 0.13 0.16 0.19 0.25 0.37 0.50 0.54 0.58 0.70 0.79 0.85 0.92 1.01 1.10 1.10 1.23 1.29 1.31 1.30 1.23 1.18 1.14 1.10 1.04 0.91 0.76 0.75 0.81 0.80 0.70 0.63 0.58 0.53 0.49 0.41
0.75 0.64 0.31 0.11 0.10 0.12 0.10 0.12 0.12 0.11 0.11 0.10 0.10 0.11 0.16 0.23 0.27 0.30 0.36 0.45 0.57 0.60 0.69 0.80 0.90 0.98 1.10 1.20 1.30 1.41 1.46 1.46 1.42 1.21 1.14 1.15 1.04 0.98 0.89 0.81 0.78 0.81 0.80 0.74 0.68 0.63 0.60 0.56 0.45
0.59 0.44 0.22 0.12 0.10 0.13 0.14 0.13 0.14 0.17 0.16 0.14 0.17 0.19 0.24 0.34 0.38 0.42 0.44 0.46 0.48 0.57 0.68 0.78 0.94 1.10 1.19 1.23 1.37 1.44 1.46 1.46 1.44 1.33 1.20 1.14 1.15 1.06 1.01 0.92 0.91 0.90 0.83 0.81 0.78 0.77 0.68 0.62 0.56
0.45 0.32 0.24 0.19 0.15 0.17 0.17 0.17 0.17 0.19 0.19 0.18 0.21 0.26 0.33 0.40 0.45 0.47 0.55 0.57 0.52 0.58 0.71 0.86 1.05 1.18 1.25 1.25 1.35 1.42 1.36 1.31 1.28 1.24 1.27 1.24 1.22 1.12 1.03 0.97 0.95 0.96 0.90 0.85 0.81 0.75 0.68 0.62 0.57
0.40 0.26 0.21 0.22 0.19 0.20 0.20 0.18 0.17 0.16 0.16 0.19 0.21 0.26 0.34 0.37 0.48 0.55 0.67 0.77 0.67 0.62 0.76 0.96 1.15 1.27 1.38 1.39 1.41 1.42 1.34 1.26 1.27 1.24 1.27 1.24 1.13 1.03 0.90 0.85 0.86 0.79 0.75 0.72 0.71 0.70 0.67 0.61 0.57
0.36 0.25 0.20 0.23 0.24 0.23 0.25 0.20 0.17 0.15 0.14 0.19 0.23 0.25 0.29 0.35 0.46 0.60 0.75 0.80 0.76 0.72 0.83 1.03 1.24 1.38 1.52 1.47 1.46 1.41 1.38 1.35 1.42 1.37 1.22 1.21 1.14 1.05 0.95 0.83 0.80 0.74 0.65 0.61 0.59 0.57 0.59 0.58 0.53
0.36 0.36 0.29 0.22 0.23 0.24 0.32 0.32 0.18 0.15 0.18 0.21 0.24 0.26 0.27 0.33 0.44 0.55 0.70 0.77 0.77 0.82 0.96 1.10 1.27 1.49 1.65 1.61 1.57 1.53 1.49 1.45 1.41 1.47 1.46 1.31 1.20 1.13 1.08 0.97 0.84 0.79 0.73 0.70 0.67 0.63 0.60 0.57 0.52
0.54 0.61 0.51 0.27 0.21 0.25 0.44 0.44 0.19 0.15 0.22 0.24 0.25 0.29 0.30 0.32 0.40 0.52 0.66 0.81 0.88 0.96 1.11 1.23 1.39 1.57 1.70 1.74 1.73 1.66 1.60 1.62 1.52 1.49 1.58 1.60 1.41 1.24 1.15 1.08 0.99 0.92 0.90 0.86 0.81 0.71 0.65 0.60 0.53
0.76 0.69 0.46 0.27 0.20 0.28 0.45 0.41 0.20 0.18 0.22 0.23 0.25 0.29 0.30 0.33 0.38 0.47 0.58 0.72 0.87 1.01 1.18 1.32 1.46 1.64 1.81 1.89 1.89 1.86 1.72 1.69 1.67 1.63 1.61 1.66 1.68 1.48 1.28 1.17 1.14 1.14 1.11 1.03 0.93 0.83 0.71 0.65 0.59
0.66 0.49 0.35 0.26 0.22 0.29 0.36 0.29 0.19 0.19 0.22 0.21 0.24 0.31 0.29 0.34 0.38 0.45 0.56 0.67 0.82 0.95 1.17 1.38 1.55 1.72 1.91 2.09 2.12 2.10 2.00 1.81 1.74 1.70 1.60 1.57 1.65 1.68 1.53 1.37 1.29 1.28 1.27 1.18 1.05 0.93 0.83 0.75 0.71
0.45 0.46 0.36 0.21 0.18 0.33 0.33 0.24 0.20 0.20 0.23 0.25 0.26 0.32 0.32 0.35 0.42 0.49 0.62 0.74 0.84 0.93 1.09 1.29 1.46 1.63 1.86 2.02 2.09 2.08 2.02 1.86 1.78 1.71 1.64 1.59 1.61 1.68 1.68 1.51 1.42 1.31 1.24 1.18 1.09 1.00 0.97 0.89 0.85
0.52 0.58 0.44 0.30 0.22 0.36 0.35 0.25 0.21 0.21 0.23 0.26 0.27 0.34 0.35 0.36 0.43 0.47 0.58 0.74 0.81 0.87 0.96 1.17 1.38 1.53 1.73 1.89 1.92 2.02 2.00 1.92 1.82 1.74 1.70 1.63 1.59 1.66 1.75 1.67 1.58 1.51 1.40 1.34 1.31 1.21 1.12 1.05 0.95
0.59 0.52 0.44 0.41 0.36 0.39 0.45 0.39 0.23 0.20 0.20 0.23 0.25 0.31 0.33 0.37 0.40 0.42 0.53 0.68 0.79 0.83 0.92 1.08 1.29 1.45 1.57 1.82 2.10 2.29 2.37 2.21 2.07 1.90 1.74 1.63 1.60 1.60 1.70 1.77 1.73 1.69 1.63 1.52 1.40 1.32 1.24 1.20 1.08
0.64 0.35 0.39 0.47 0.71 0.75 0.61 0.71 0.28 0.20 0.18 0.22 0.25 0.28 0.28 0.33 0.35 0.37 0.46 0.60 0.73 0.81 0.96 1.10 1.18 1.37 1.57 1.72 2.00 2.25 2.36 2.22 1.91 1.81 1.78 1.72 1.65 1.63 1.63 1.69 1.72 1.70 1.66 1.58 1.45 1.32 1.23 1.25 1.25
0.52 0.37 0.42 0.53 0.82 0.97 0.65 0.76 0.34 0.20 0.21 0.20 0.25 0.27 0.28 0.32 0.35 0.35 0.41 0.51 0.63 0.81 0.97 1.12 1.20 1.34 1.59 1.76 1.88 2.16 2.33 2.23 2.07 1.95 1.84 1.76 1.73 1.69 1.62 1.61 1.65 1.69 1.67 1.64 1.55 1.45 1.39 1.33 1.29
0.49 0.59 0.69 0.82 1.32 1.61 0.61 0.59 0.40 0.28 0.30 0.24 0.26 0.29 0.30 0.34 0.40 0.38 0.41 0.50 0.58 0.78 0.90 1.09 1.23 1.28 1.51 1.74 1.90 2.04 2.27 2.37 2.27 2.13 2.03 1.88 1.82 1.76 1.69 1.59 1.59 1.64 1.67 1.66 1.66 1.61 1.54 1.45 1.33
0.81 1.38 2.05 2.23 2.28 1.37 0.32 0.41 0.43 0.29 0.28 0.32 0.35 0.36 0.36 0.37 0.42 0.43 0.44 0.51 0.54 0.72 0.84 1.02 1.23 1.25 1.33 1.53 1.75 1.94 2.13 2.31 2.40 2.27 2.07 1.97 1.95 1.87 1.72 1.61 1.54 1.55 1.54 1.53 1.55 1.65 1.67 1.59 1.51
0.85 1.23 1.65 1.55 1.02 0.49 0.28 0.39 0.37 0.30 0.28 0.27 0.29 0.33 0.33 0.36 0.41 0.46 0.49 0.51 0.53 0.59 0.72 0.89 1.12 1.20 1.22 1.34 1.50 1.80 2.06 2.24 2.33 2.36 2.16 2.02 1.92 1.83 1.72 1.63 1.53 1.46 1.47 1.48 1.47 1.52 1.57 1.58 1.53
0.83 0.91 0.82 1.13 0.82 0.54 0.42 0.37 0.29 0.20 0.19 0.20 0.24 0.29 0.31 0.38 0.43 0.48 0.57 0.56 0.57 0.59 0.65 0.79 1.03 1.16 1.14 1.23 1.34 1.53 1.81 2.08 2.22 2.26 2.25 2.13 2.00 1.89 1.80 1.70 1.64 1.56 1.52 1.50 1.47 1.46 1.44 1.45 1.48
0.67 0.82 0.95 1.46 1.32 0.80 0.46 0.34 0.42 0.32 0.25 0.22 0.25 0.31 0.35 0.37 0.43 0.48 0.57 0.61 0.62 0.59 0.64 0.77 0.93 1.15 1.17 1.18 1.26 1.36 1.53 1.78 2.01 2.20 2.30 2.15 2.06 2.00 2.03 1.94 1.82 1.71 1.67 1.62 1.55 1.48 1.38 1.39 1.42
0.77 1.01 1.22 1.25 1.01 0.86 0.64 0.51 0.54 0.44 0.38 0.33 0.29 0.33 0.37 0.39 0.44 0.50 0.54 0.59 0.63 0.62 0.65 0.77 0.89 1.06 1.23 1.26 1.25 1.35 1.47 1.67 1.84 1.91 2.06 2.17 2.15 2.06 2.11 2.13 2.06 1.93 1.82 1.76 1.72 1.64 1.55 1.51 1.42
0.79 0.92 1.06 1.28 0.98 0.61 0.63 0.58 0.45 0.38 0.35 0.34 0.31 0.32 0.38 0.44 0.49 0.51 0.53 0.55 0.58 0.64 0.67 0.71 0.87 1.01 1.14 1.27 1.30 1.35 1.46 1.66 1.79 1.77 1.78 1.91 2.09 2.09 2.08 2.22 2.22 2.14 2.02 1.92 1.90 1.87 1.76 1.71 1.62